TimeEST,TemperatureF,Dew PointF,Humidity,Sea Level PressureIn,VisibilityMPH,Wind Direction,Wind SpeedMPH,Gust SpeedMPH,PrecipitationIn,Events,Conditions,WindDirDegrees,DateUTC
12:53 AM,39.0,35.1,86,30.04,10.0,Calm,Calm,-,N/A,,Clear,0,2012-01-28 05:53:00
1:53 AM,39.0,35.1,86,30.05,10.0,West,5.8,-,N/A,,Clear,280,2012-01-28 06:53:00
2:53 AM,37.0,35.1,93,30.06,10.0,WNW,3.5,-,N/A,,Clear,300,2012-01-28 07:53:00
3:53 AM,36.0,35.1,97,30.07,7.0,Calm,Calm,-,N/A,,Clear,0,2012-01-28 08:53:00
4:53 AM,35.1,34.0,96,30.09,10.0,West,4.6,-,N/A,,Clear,280,2012-01-28 09:53:00
5:53 AM,35.1,34.0,96,30.12,5.0,West,5.8,-,N/A,,Clear,280,2012-01-28 10:53:00
6:53 AM,36.0,33.1,89,30.14,10.0,WNW,4.6,-,N/A,,Clear,290,2012-01-28 11:53:00
7:53 AM,35.1,32.0,89,30.14,10.0,West,3.5,-,N/A,,Clear,280,2012-01-28 12:53:00
8:53 AM,39.9,36.0,86,30.14,10.0,WNW,5.8,-,N/A,,Clear,290,2012-01-28 13:53:00
9:53 AM,46.0,37.0,71,30.14,10.0,WNW,12.7,-,N/A,,Clear,290,2012-01-28 14:53:00
10:53 AM,52.0,37.9,59,30.15,10.0,West,10.4,17.3,N/A,,Clear,280,2012-01-28 15:53:00
11:53 AM,54.0,37.0,53,30.14,10.0,West,10.4,-,N/A,,Clear,260,2012-01-28 16:53:00
12:53 PM,57.0,37.9,49,30.12,10.0,WSW,15.0,19.6,N/A,,Clear,250,2012-01-28 17:53:00
1:53 PM,60.1,37.9,44,30.11,10.0,West,12.7,-,N/A,,Clear,280,2012-01-28 18:53:00
2:53 PM,59.0,37.9,46,30.11,10.0,West,15.0,23.0,N/A,,Clear,280,2012-01-28 19:53:00
3:53 PM,57.0,39.0,51,30.13,10.0,West,15.0,24.2,N/A,,Clear,260,2012-01-28 20:53:00
5:53 PM,51.1,34.0,52,30.19,10.0,NNW,11.5,-,N/A,,Mostly Cloudy,340,2012-01-28 22:53:00
6:53 PM,48.9,28.0,44,30.23,10.0,NW,10.4,-,N/A,,Clear,310,2012-01-28 23:53:00
7:53 PM,46.0,28.0,50,30.26,10.0,NW,6.9,-,N/A,,Clear,320,2012-01-29 00:53:00
8:53 PM,45.0,24.1,44,30.27,10.0,NW,5.8,-,N/A,,Clear,320,2012-01-29 01:53:00
9:53 PM,43.0,21.0,42,30.27,10.0,NW,8.1,-,N/A,,Clear,310,2012-01-29 02:53:00
10:53 PM,41.0,19.9,43,30.28,10.0,NW,4.6,-,N/A,,Clear,310,2012-01-29 03:53:00
11:53 PM,39.0,19.0,45,30.28,10.0,WNW,5.8,-,N/A,,Clear,300,2012-01-29 04:53:00